Погода в Сабанчееве

Россия / Республика Мордовия     54˚34′58″N   46˚16′53″E
темп.,
°C
ветер,
м/с
пор.,
м/с
влажн.,
%
обл.,
%
осадки,
мм/ч
давл.,
гПа
погр.,
м
17 января, вс
вс1700:00−15˚зюз5119496 0.1 1002353
03:00−17˚зюз6119596 0.1 1004317
06:00−17˚з6119499 0.1 1006393
09:00−18˚зюз51096100 0.1 1008268
12:00−18˚з5894100 0.0 1011368
15:00−19˚з3597100 0.0 1012118
18:00−20˚з239999 0.0 101636
21:00−23˚сз1210095 0.1 101720
18 января, пн
пн1800:00−25˚ссз1110029 0.0 101820
03:00−26˚зюз0010050 0.0 101920
06:00−26˚ююв019967 0.0 101919
09:00−25˚ссз119762 0.0 102020
12:00−21˚юв119499 0.0 1020126
15:00−21˚в119697 0.0 101921
18:00−22˚св2296100 0.0 101921
21:00−20˚всв1296100 0.0 1018120
19 января, вт
вт1900:00−20˚св2399100 0.6 1018141
03:00−20˚св2299100 1.3 101799
06:00−20˚ссв2399100 0.4 1016158
09:00−20˚с2398100 0.8 1015143
12:00−18˚ссз2295100 0.6 1015230
15:00−18˚ссз2396100 1.1 1014234
18:00−20˚ссз2298100 0.2 101455
21:00−21˚зсз229890 0.3 101420
20 января, ср
ср2000:00−23˚зсз229972 0.0 101520
03:00−23˚з239977 0.1 101525
06:00−23˚з239989 0.0 101631
09:00−21˚з369895 0.1 1017169
12:00−18˚з4695100 0.1 1017304
15:00−18˚з4794100 0.2 1017303
18:00−19˚з499791 0.0 1019203
21:00−18˚з599691 0.1 1019217
21 января, чт
чт2100:00−17˚з599677 0.1 1020201
03:00−16˚з6109584 0.1 1020250
06:00−16˚з6109589 0.1 1021249
09:00−17˚з6109693 0.1 1021244
12:00−16˚зюз6995100 0.0 1021262
15:00−15˚зюз51095100 0.1 1020258
18:00−15˚зюз51093100 0.0 1020238
21:00−14˚юз4891100 0.0 1019226